This is the latest recevied weather packets stored in our database for station/object WD4DAN-13. If no packets are shown the sender has not sent any weather packets the latest 10 day(s).
| Time | Temp. | Humidity | Pressure | Rain* | Wind** | Luminosity | Snow |
|---|---|---|---|---|---|---|---|
| 1777939564 | 22.78° C | 46% | - | 0 mm | - | - | - |
| 1777939262 | 23.33° C | 47% | - | 0 mm | - | - | - |
| 1777938958 | 23.89° C | 43% | - | 0 mm | - | - | - |
| 1777938655 | 24.44° C | 45% | - | 0 mm | - | - | - |
| 1777938352 | 24.44° C | 43% | - | 0 mm | - | - | - |
| 1777938049 | 25° C | 43% | - | 0 mm | - | - | - |
| 1777937744 | 25° C | 41% | - | 0 mm | - | - | - |
| 1777937441 | 25° C | 41% | - | 0 mm | - | - | - |
| 1777937138 | 25.56° C | 40% | - | 0 mm | - | - | - |
| 1777936836 | 25.56° C | 39% | - | 0 mm | - | - | - |
| 1777936532 | 25.56° C | 40% | - | 0 mm | - | - | - |
| 1777936228 | 26.11° C | 40% | - | 0 mm | - | - | - |
| 1777935925 | 26.11° C | 39% | - | 0 mm | - | - | - |
| 1777935624 | 26.67° C | 36% | - | 0 mm | - | - | - |
| 1777935320 | 26.11° C | 37% | - | 0 mm | - | - | - |
| 1777935018 | 26.67° C | 37% | - | 0 mm | - | - | - |
| 1777934714 | 26.67° C | 38% | - | 0 mm | - | - | - |
| 1777934411 | 26.67° C | 37% | - | 0 mm | - | - | - |
| 1777934108 | 26.67° C | 38% | - | 0 mm | - | - | - |
| 1777933804 | 27.22° C | 37% | - | 0 mm | - | - | - |
| 1777933501 | 27.22° C | 35% | - | 0 mm | - | - | - |
| 1777933198 | 26.67° C | 36% | - | 0 mm | - | - | - |
| 1777932895 | 26.67° C | 36% | - | 0 mm | - | - | - |
| 1777932592 | 27.22° C | 37% | - | 0 mm | - | - | - |
| 1777932289 | 27.78° C | 36% | - | 0 mm | - | - | - |
* Rain latest hour (hover to see other rain measurements)
** Current wind speed in m/s (hover to see current wind gust speed)